Simultaneous Nadir Overpasses (SNOs) Predictions

Prediction of SNOs between NOAA-19 and NPP Satellite Orbit:

Table of predicted SNOs for the next 14.0 days since TLE Epoch: 10/16/2015
Index Date (NOAA-19) Time (NOAA-19) Lat,Lon (NOAA-19) SZA (NOAA-19 ) Date (NPP) Time (NPP) Lat,Lon (NPP) SZA (NPP ) Distance(km) Time Diff (sec)
1 10/24/2015 02:50:02 -81.04, -95.49 84.38 10/24/2015 02:51:15 -81.04, -95.53 84.41 0.61 73
2 10/24/2015 03:41:08 81.04, 71.88 95.62 10/24/2015 03:42:00 81.04, 71.74 95.62 2.41 52
3 10/24/2015 04:32:04 -81.04,-120.83 84.37 10/24/2015 04:32:45 -81.04,-120.95 84.38 2.18 41
4 10/24/2015 05:23:10 81.04, 46.16 95.67 10/24/2015 05:23:29 81.04, 46.31 95.65 2.69 19
5 10/24/2015 06:14:05 -81.04,-146.17 84.37 10/24/2015 06:14:13 -81.03,-146.01 84.40 2.87 8
6 10/24/2015</
